FENGYUN 1C DEB

Satellite information

Favourite Embed

Satellite Type and Status

DEBRISIN ORBIT

Key statistics

Satellite FENGYUN 1C DEB at a glance.

Uptime

9495

Days in orbit

Revolutions

≈ 14.3

Per day

Orbit

SSO

Sun Synchronous Orbit

Inclination

99.4

Latest

Satellite identification and parameters

Extended collection of information and parameters for FENGYUN 1C DEB.

Object identification

Identified? True

Debris? True

Object name: FENGYUN 1C DEB

International designator: 1999-025ARR

Object number (NORAD): 30707

Object ID (CCSDS): 30707

Country: PEOPLES REPUBLIC OF CHINA (PRC)

Current information (Y/N): Y

RCS size: SMALL

Orbital parameters

Period: 101.048 minutes

Inclination: 99.4232 deg

SMA: 7186.389 km

Apoapsis: 827.171 km

Periapsis: 789.338 km

RAAN: 165.5434 deg

Eccentricy: 0.0026323

Argument of periapsis: 334.0108 deg

Mean anomaly: 152.8607 deg

Mean motion: 14.25071498 rev/day

Mean motion (dot): 0.00003752 rev/day2

B* drag term: 0.0016157 1/REarth

Two-line elements (TLE)

Creation date: May 8, 2025, 3:01 a.m.

Reference frame: TEME

Reference center: EARTH

Epoch: May 7, 2025, 9:28 a.m. UTC

TLE line 0: 0 FENGYUN 1C DEB

TLE line 1: 1 30707U 99025ARR 25127.39461815 .00003752 00000-0 16157-2 0 9995

TLE line 2: 2 30707 99.4232 165.5434 0026323 334.0108 152.8607 14.25071498936773

Live tracking on map

Real-time ground track for satellite FENGYUN 1C DEB.

In-orbit conjunctions

A list of the most updated potential collisions computed for object FENGYUN 1C DEB.

Target Orbit TCA Probability of collision Miss distance Type
COSMOS 2208 LEO 2025-01-06 19:25:54 0.001375854 177.0 (m) PAYLOAD
COSMOS 1275 DEB LEO 2024-10-05 16:08:15 0.0001118744 189.0 (m) DEBRIS
COSMOS 1980 LEO 2024-07-04 06:25:03 0.0002888205 239.0 (m) PAYLOAD

Associated space launch

Chinese polar orbiting meteorological satellite

FENGYUN 1C DEB was lifted into orbit during the mission ‘Long March 4B | Feng Yun 1C’, on board a Long March 4B space rocket.

The launch took place on May 10, 1999, 1:33 a.m. from Launch Complex 7.

For more information about the launch, click the button.

Launch to space Long March 4B | Feng Yun 1C
Long March 4B | Feng Yun 1C

Agency: N/A

Status: Launch Successful

Launch date: May 10, 1999, 1:33 a.m. UTC

Rocket: Long March 4B

Launch pad: Launch Complex 7

Location: Taiyuan Satellite Launch Center, People's Republic of China

...

Latest news about this satellite

There are no fresh news available about this satellite. Check back as we update our databases every day.


Newsletter sign-up

Weekly statistics, charts and insights to help you stay on top of the space industry.